Date String (YYYY-MM-DD hh:mm:ss) UTC,Instrument flags,Ambient pressure (hPa),Sample flow (lpm),Bypass flow (lpm),Sample temperature (°C),Ambient temperature (°C),ASC tube jacket temperature (°C),LED temperature (°C),Box temperature (°C),Sample RH (%),Span deviation,Mass concentration (μg/m³),Mass concentration (μg/m³),Mass concentration (μg/m³)
DateTimeUTC,F1_M11,P_M11,Q1_M11,Q2_M11,T1_M11,T2_M11,T3_M11,T4_M11,T5_M11,U1_M11,ZSPAN_M11,X0_M11,X2_M11,X1_M11
2021-09-15 04:00:00,,0827.7,5.00,0.00,29.4,28.6,00.0,38.5,31.2,29.9,-000.0,0017.64,0007.54,0006.44
2021-09-15 04:01:00,,0827.7,5.00,0.00,29.4,28.6,00.0,38.6,31.2,29.9,0000.2,0018.20,0007.50,0006.43
2021-09-15 04:02:00,,0827.7,5.01,0.00,29.5,28.6,00.0,38.6,31.2,29.9,-000.1,0018.18,0007.52,0006.42
2021-09-15 04:03:00,,0827.7,5.00,0.00,29.5,28.7,00.0,38.6,31.2,29.8,-000.2,0018.47,0007.50,0006.41
2021-09-15 04:04:00,,0827.7,4.99,0.00,29.5,28.7,00.0,38.6,31.2,29.8,-000.0,0018.79,0007.49,0006.42
2021-09-15 04:05:00,,0827.7,5.02,0.00,29.5,28.7,00.0,38.6,31.3,29.7,0000.1,0019.04,0007.50,0006.44
2021-09-15 04:06:00,,0827.7,5.00,0.00,29.5,28.7,00.0,38.6,31.2,29.7,0000.1,0018.57,0007.49,0006.45
2021-09-15 04:07:00,,0827.7,5.00,0.00,29.5,28.7,00.0,38.6,31.2,29.6,0000.2,0018.82,0007.55,0006.47
2021-09-15 04:08:00,,0827.7,4.99,0.00,29.5,28.7,00.0,38.6,31.2,29.6,0000.1,0018.53,0007.59,0006.48
2021-09-15 04:09:00,,0827.7,5.01,0.00,29.5,28.7,00.0,38.6,31.2,29.6,0000.3,0018.85,0007.60,0006.51
2021-09-15 04:10:00,,0827.7,4.98,0.00,29.5,28.7,00.0,38.7,31.2,29.5,0000.3,0018.58,0007.60,0006.53
2021-09-15 04:11:00,,0827.7,5.01,0.00,29.5,28.7,00.0,38.7,31.2,29.5,0000.2,0017.71,0007.60,0006.54
2021-09-15 04:12:00,,0827.7,5.00,0.00,29.5,28.8,00.0,38.7,31.2,29.5,0000.0,0017.32,0007.66,0006.56
2021-09-15 04:13:00,,0827.7,4.99,0.00,29.5,28.8,00.0,38.7,31.3,29.6,-000.1,0017.56,0007.66,0006.58
2021-09-15 04:14:00,,0827.9,5.00,0.00,29.5,28.8,00.0,38.7,31.2,29.6,-000.1,0016.46,0007.63,0006.59
2021-09-15 04:15:00,,0827.7,5.01,0.00,29.5,28.8,00.0,38.7,31.2,29.5,-000.9,0016.08,0007.65,0006.59
2021-09-15 04:16:00,,0827.7,4.99,0.00,29.5,28.8,00.0,38.7,31.3,29.4,-001.0,0015.67,0007.63,0006.60
2021-09-15 04:17:00,,0827.8,5.00,0.00,29.5,28.8,00.0,38.7,31.3,29.4,-001.0,0015.56,0007.61,0006.60
2021-09-15 04:18:00,,0827.8,4.99,0.00,29.6,28.8,00.0,38.7,31.3,29.4,-001.0,0014.85,0007.57,0006.61
2021-09-15 04:19:00,,0827.8,4.99,0.00,29.5,28.8,00.0,38.7,31.3,29.4,-000.6,0014.44,0007.51,0006.61
2021-09-15 04:20:00,,0827.8,5.01,0.00,29.6,28.8,00.0,38.7,31.3,29.4,-000.4,0014.59,0007.50,0006.62
2021-09-15 04:21:00,,0827.8,5.00,0.00,29.6,28.8,00.0,38.7,31.3,29.4,0000.2,0015.30,0007.51,0006.61
2021-09-15 04:22:00,,0827.8,5.00,0.00,29.6,28.8,00.0,38.7,31.3,29.2,0000.4,0015.57,0007.52,0006.61
2021-09-15 04:23:00,,0827.8,5.01,0.00,29.6,28.8,00.0,38.7,31.3,29.2,0000.4,0014.84,0007.52,0006.62
2021-09-15 04:24:00,,0827.8,4.99,0.00,29.5,28.8,00.0,38.7,31.3,29.2,0000.8,0014.08,0007.52,0006.63
2021-09-15 04:25:00,,0827.8,5.01,0.00,29.5,28.8,00.0,38.7,31.3,29.2,0001.2,0015.00,0007.55,0006.64
2021-09-15 04:26:00,,0827.8,4.99,0.00,29.5,28.8,00.0,38.7,31.3,29.2,0001.9,0015.07,0007.57,0006.66
2021-09-15 04:27:00,,0827.8,5.00,0.00,29.5,28.8,00.0,38.7,31.3,29.1,0002.0,0015.17,0007.65,0006.67
2021-09-15 04:28:00,,0827.8,5.00,0.00,29.5,28.8,00.0,38.7,31.3,29.1,0002.1,0015.50,0007.70,0006.70
2021-09-15 04:29:00,,0827.8,4.99,0.00,29.6,28.8,00.0,38.7,31.3,29.1,0002.1,0016.29,0007.77,0006.71
2021-09-15 04:30:00,,0827.8,5.00,0.00,29.6,28.8,00.0,38.8,31.3,29.2,0002.0,0016.54,0007.83,0006.73
2021-09-15 04:31:00,,0827.8,5.00,0.00,29.6,28.8,00.0,38.8,31.3,29.1,0002.0,0015.89,0007.82,0006.74
2021-09-15 04:32:00,,0827.8,5.00,0.00,29.6,28.9,00.0,38.8,31.3,29.1,0001.7,0015.55,0007.83,0006.76
2021-09-15 04:33:00,,0827.8,4.98,0.00,29.6,28.9,00.0,38.8,31.3,29.0,0002.0,0015.46,0007.84,0006.77
2021-09-15 04:34:00,,0827.8,5.01,0.00,29.6,28.9,00.0,38.8,31.4,28.9,0002.4,0015.57,0007.85,0006.76
2021-09-15 04:35:00,,0827.8,5.00,0.00,29.6,28.9,00.0,38.8,31.3,28.9,0002.3,0016.07,0007.88,0006.76
2021-09-15 04:36:00,,0827.7,4.99,0.00,29.6,28.9,00.0,38.8,31.3,28.8,0002.2,0015.24,0007.90,0006.76
2021-09-15 04:37:00,,0827.7,5.01,0.00,29.6,28.9,00.0,38.8,31.3,28.8,0001.8,0015.50,0007.90,0006.77
2021-09-15 04:38:00,,0827.7,4.99,0.00,29.6,28.9,00.0,38.8,31.3,28.8,0001.7,0015.98,0007.89,0006.77
2021-09-15 04:39:00,,0827.7,5.01,0.00,29.6,28.9,00.0,38.8,31.3,28.7,0001.9,0015.85,0007.88,0006.76
2021-09-15 04:40:00,,0827.7,5.01,0.00,29.6,28.9,00.0,38.8,31.4,28.7,0002.2,0015.31,0007.85,0006.76
2021-09-15 04:41:00,,0827.7,5.00,0.00,29.6,28.9,00.0,38.8,31.3,28.7,0002.3,0015.59,0007.87,0006.78
2021-09-15 04:42:00,,0827.7,5.02,0.00,29.6,28.9,00.0,38.8,31.4,28.6,0002.6,0015.48,0007.92,0006.80
2021-09-15 04:43:00,,0827.7,4.99,0.00,29.6,28.9,00.0,38.8,31.3,28.7,0002.9,0015.23,0007.92,0006.81
2021-09-15 04:44:00,,0827.7,5.00,0.00,29.7,28.9,00.0,38.8,31.4,28.9,0002.9,0016.00,0007.97,0006.83
2021-09-15 04:45:00,,0827.7,5.01,0.00,29.7,28.9,00.0,38.8,31.4,28.8,0002.8,0016.52,0007.95,0006.84
2021-09-15 04:46:00,,0827.7,4.98,0.00,29.7,29.0,00.0,38.8,31.4,28.7,0002.8,0016.41,0007.99,0006.87
2021-09-15 04:47:00,,0827.7,5.01,0.00,29.7,29.0,00.0,38.8,31.4,28.6,0002.7,0016.82,0008.04,0006.89
2021-09-15 04:48:00,,0827.7,5.00,0.00,29.7,29.0,00.0,38.8,31.4,28.6,0002.3,0016.65,0008.05,0006.89
2021-09-15 04:49:00,,0827.7,4.99,0.00,29.7,29.0,00.0,38.8,31.4,28.6,0002.0,0017.08,0008.01,0006.89
2021-09-15 04:50:00,,0827.7,5.00,0.00,29.7,29.0,00.0,38.8,31.4,28.5,0002.0,0017.26,0008.00,0006.90
2021-09-15 04:51:00,,0827.7,5.00,0.00,29.7,29.0,00.0,38.8,31.4,28.5,0001.9,0017.05,0008.03,0006.92
2021-09-15 04:52:00,,0827.7,5.01,0.00,29.7,29.0,00.0,38.9,31.4,28.6,0001.6,0016.86,0008.02,0006.91
2021-09-15 04:53:00,,0827.7,5.00,0.00,29.7,29.0,00.0,38.9,31.4,28.5,0001.1,0017.99,0008.00,0006.91
2021-09-15 04:54:00,,0827.7,4.99,0.00,29.7,29.0,00.0,38.9,31.4,28.6,0000.8,0018.44,0008.01,0006.91
2021-09-15 04:55:00,,0827.7,5.00,0.00,29.7,29.0,00.0,38.9,31.4,28.5,0000.4,0017.68,0008.01,0006.91
2021-09-15 04:56:00,,0827.7,5.01,0.00,29.7,29.0,00.0,38.9,31.4,28.5,0000.0,0016.93,0008.05,0006.92
2021-09-15 04:57:00,,0827.7,5.00,0.00,29.7,29.0,00.0,38.9,31.4,28.5,-000.0,0016.60,0008.02,0006.91
2021-09-15 04:58:00,,0827.7,5.01,0.00,29.7,29.0,00.0,38.9,31.4,28.5,-000.0,0016.65,0008.00,0006.91
2021-09-15 04:59:00,,0827.7,5.00,0.00,29.7,29.0,00.0,38.9,31.4,28.5,0000.5,0016.59,0007.99,0006.91
